Weather History for KD07 - October, 2012

Change the Weather History Date:

Tuesday, October 9, 2012

  Actual Average Record
Temperature  
Mean Temperature 39 °F 49 °F  
Max Temperature 48 °F 62 °F 87 °F (2003)
Min Temperature 30 °F 37 °F 27 °F (2000)
Degree Days  
Heating Degree Days 26 16  
Month to date heating degree days 188 128  
Since 1 July heating degree days 304 360  
Cooling Degree Days 0 0  
Month to date cooling degree days 0 0  
Year to date cooling degree days 971 634  
Moisture  
Dew Point 21 °F    
Average Humidity 50    
Maximum Humidity 72    
Minimum Humidity 28    
Precipitation  
Precipitation 0.00 in 0.04 in 0.62 in (2001)
Month to date precipitation 0.12 0.31  
Year to date precipitation 12.18 15.49  
Sea Level Pressure  
Sea Level Pressure 30.08 in    
Wind  
Wind Speed 16 mph (NW)    
Max Wind Speed 29 mph    
Max Gust Speed 36 mph    
T = Trace of Precipitation, MM = Missing Value Source: NWS Daily Summary

Daily Weather History Graph

Daily Weather History Graph

Search for Another Location

Airport or City:

Trip Planner

Search our weather history database for the weather conditions in past years. The results will help you decide how hot, cold, wet, or windy it might be!

Date:

Astronomy

Oct. 09, 2012 Rise Set
Actual Time 6:56 AM MDT 6:12 PM MDT
Civil Twilight 6:27 AM MDT 6:42 PM MDT
Nautical Twilight 5:53 AM MDT 7:16 PM MDT
Astronomical Twilight 5:19 AM MDT 7:50 PM MDT
Moon 12:19 AM MDT (10/9) 2:55 PM MDT (10/9)
Length of Visible Light 12h 14m
Length of Day
11h 15m
Last Quarter, 36% of the Moon is Illuminated
Oct 9
Last Quarter
Oct 15
New
Oct 21
First Quarter
Oct 29
Full
Nov 6
Last Quarter

Hourly Weather History & Observations

Time (MDT) Temp. Windchill Dew Point Humidity Pressure Visibility Wind Dir Wind Speed Gust Speed Precip Events Conditions
12:56 AM 43.0 °F 34.5 °F 27.0 °F 53% 29.91 in - NW 19.6 mph - N/A   Unknown
1:56 AM 39.9 °F 29.2 °F 26.1 °F 58% 29.96 in - NW 25.3 mph 31.1 mph N/A   Unknown
2:56 AM 39.9 °F 30.8 °F 21.9 °F 49% 29.97 in - NW 18.4 mph 26.5 mph N/A   Unknown
3:56 AM 39.0 °F 29.9 °F 25.0 °F 57% 29.99 in - WNW 17.3 mph - N/A   Unknown
4:56 AM 39.0 °F 29.3 °F 24.1 °F 55% 29.99 in - WNW 19.6 mph 26.5 mph N/A   Unknown
5:56 AM 37.9 °F 27.9 °F 26.1 °F 62% 30.01 in - WNW 19.6 mph - N/A   Unknown
6:56 AM 36.0 °F 26.3 °F 27.0 °F 70% 30.03 in - WNW 16.1 mph - N/A   Unknown
7:56 AM 37.9 °F 28.2 °F 27.0 °F 65% 30.05 in - NNW 18.4 mph - N/A   Unknown
8:56 AM 39.9 °F 29.5 °F 25.0 °F 55% 30.07 in - NNW 24.2 mph 31.1 mph N/A   Unknown
9:56 AM 39.9 °F 30.2 °F 21.9 °F 49% 30.09 in - NNW 20.7 mph 28.8 mph N/A   Unknown
10:56 AM 43.0 °F 33.8 °F 19.0 °F 38% 30.09 in - NW 23.0 mph 32.2 mph N/A   Unknown
11:56 AM 43.0 °F 33.5 °F 19.0 °F 38% 30.10 in - NW 24.2 mph 33.4 mph N/A   Unknown
12:56 PM 44.1 °F 36.2 °F 19.0 °F 37% 30.10 in - NW 18.4 mph 26.5 mph N/A   Unknown
1:56 PM 45.0 °F 36.9 °F 19.0 °F 36% 30.10 in - NW 20.7 mph 29.9 mph N/A   Unknown
2:56 PM 46.0 °F 37.6 °F 18.0 °F 33% 30.09 in - NNW 24.2 mph 29.9 mph N/A   Unknown
3:56 PM 46.9 °F - 17.1 °F 30% 30.10 in - NW 24.2 mph 28.8 mph N/A   Unknown
4:56 PM 46.0 °F 38.8 °F 16.0 °F 30% 30.11 in - NW 18.4 mph 26.5 mph N/A   Unknown
5:56 PM 41.0 °F 35.2 °F 17.1 °F 38% 30.14 in - NNW 9.2 mph - N/A   Unknown
6:56 PM 37.0 °F 32.4 °F 17.1 °F 44% 30.15 in - NNW 5.8 mph - N/A   Unknown
7:56 PM 37.0 °F 33.3 °F 17.1 °F 44% 30.16 in - NW 4.6 mph - N/A   Unknown
8:56 PM 34.0 °F 31.0 °F 16.0 °F 48% 30.18 in - SW 3.5 mph - N/A   Unknown
9:56 PM 32.0 °F 28.7 °F 17.1 °F 54% 30.18 in - West 3.5 mph - N/A   Unknown
10:56 PM 32.0 °F 28.7 °F 19.9 °F 61% 30.17 in - West 3.5 mph - N/A   Unknown
11:56 PM 30.9 °F 25.2 °F 23.0 °F 72% 30.17 in - West 5.8 mph - N/A   Unknown